Вернуться в каталог

ONEWEB-0378

АктивенСвязьPO
NORAD 49304·PAYLOAD·🇬🇧 United Kingdom

Запущен Oct 14, 2021 с Vostochny Cosmodrome

Loading…

Ближайшие Пролёты (ближайшие 24 часа)

TLE

СвежийSource: CelesTrak SupGP

Эпоха: Sep 14, 2026, 14:07 UTC

1 49304C 21090AB  26257.58873103 -.00002611  00000+0 -64283-2 0  2572
2 49304  87.9140 256.6051 0002154  91.4743 330.6901 13.20775928    13

Отслеживайте ONEWEB-0378 в реальном времени с AllMySat

Download on the App Store